Regional Weather Roundup
Issued by NWS Kansas City/Pleasant Hill, MO

Home | Current Version | Previous Version | Text Only | Print | Product List | Glossary On
Versions: 1 2 3 4 5 6 7 8 9 10 11 12 13 14 15 16 17 18 19 20 21 22 23 24 25 26 27
000
ASUS43 KEAX 172110
RWREAX

WEATHER ROUNDUP FOR EASTERN KANSAS AND NORTHWEST MISSOURI
NATIONAL WEATHER SERVICE KANSAS CITY/PLEASANT HILL MO
300 PM CST TUE JAN 17 2017

KSZ040-057-103>105-MOZ028-029-037-043-172200-
...KANSAS CITY METROPOLITAN AREA...

CITY           SKY/WX    TMP DP  RH WIND       PRES   REMARKS
K.C. INTL      CLOUDY    37  33  85 W8        30.10R WCI  31
K.C. DOWNTOWN  CLOUDY    39  35  86 W9        30.11R WCI  33
LEES SUMMIT    CLOUDY    38  34  85 W9        30.10S WCI  31
OLATHE - IXD   CLOUDY    39  36  89 W7        30.11S WCI  34
OLATHE - OJC   CLOUDY    38  36  92 W7        30.10S WCI  33
LAWRENCE       MOSUNNY   43  37  79 W7        30.11S

$$

MOZ001>008-011>017-020>025-030>033-038>040-044>046-053-054-172200-
...NORTHERN AND CENTRAL MISSOURI...

CITY           SKY/WX    TMP DP  RH WIND       PRES   REMARKS
ST. JOSEPH     CLOUDY    37  35  92 W8        30.11R WCI  31
MOSBY          CLOUDY    37  34  87 W5        30.11R WCI  34
WARRENSBURG    CLOUDY    37  34  87 W8        30.11S WCI  31
WHITEMAN AFB   CLOUDY    38  38 100 W8        30.09S WCI  32
CLINTON        CLOUDY    39  36  87 SW12      30.13R WCI  32
SEDALIA        CLOUDY    39  36  89 W9        30.12R WCI  33
WARSAW         NOT AVBL
CHILLICOTHE      N/A     38  35  89 VRB6      30.10R WCI  33
KIRKSVILLE     CLOUDY    37  35  92 W9        30.05R FOG     WCI  30

$$

MOZ041-047>049-056>058-063>065-088>090-097-172200-
...EASTERN AND SOUTHERN MISSOURI...

CITY           SKY/WX    TMP DP  RH WIND       PRES   REMARKS
ST. LOUIS INTL CLOUDY    45  37  73 W13       30.05R
SPIRIT OF STL  CLOUDY    43  38  82 W13       30.06R
COLUMBIA       CLOUDY    39  36  89 W14G21    30.09R WCI  31
JEFFERSON CITY CLOUDY    40  36  86 W10       30.11R WCI  33
ROLLA          CLOUDY    39  36  89 W13       30.06R WCI  31
OSAGE BEACH    CLOUDY    39  35  86 W9        30.12R WCI  33
SPRINGFIELD    CLOUDY    39  34  82 W13       30.11S WCI  31
BRANSON        CLOUDY    39  36  87 NW9       30.12R WCI  33
JOPLIN         CLOUDY    39  36  89 W10       30.14S WCI  32
WEST PLAINS    CLOUDY    43  37  79 W8        30.09S

$$

IAZ060-094-KSZ022-034>040-054-083-096-NEZ052-066-093-172200-
...KANSAS...SOUTHEAST NEBRASKA AND IOWA...

CITY           SKY/WX    TMP DP  RH WIND       PRES   REMARKS
TOPEKA         PTSUNNY   45  35  68 W7        30.11R
MANHATTAN      SUNNY     44  29  55 W10       30.11R
EMPORIA        SUNNY     48  35  60 NW8       30.10S
CHANUTE        CLOUDY    42  35  76 W6        30.13F
WICHITA        SUNNY     50  28  42 W9        30.11S
OMAHA          CLOUDY    31  26  82 SW5       30.08R WCI  26
LINCOLN        SUNNY     37  29  72 W6        30.09S WCI  32
FALLS CITY     CLOUDY    36  32  85 W9        30.09S WCI  29
LAMONI         CLOUDY    36  34  92 W10       30.04R WCI  28
DES MOINES     CLOUDY    36  33  89 W13       30.03R WCI  27

$$





USA.gov is the U.S. government's official web portal to all federal, state and local government web resources and services.